Wind_Speed
9 12 14 16 18 19 19 20 22 23 24 25 25 25 26 27 28 28 29 32 34 36 38 41 42 43 44 44 44 44 44 45 45 45 45 45 43 41 39 36 34 32 31 30 29 28 28 28 28 27 26 24 23 21 20 19 19 19 19 19 19 18 18 16 14 15 17 19 19 19 21 22 20 17 14 13 13 15 18 20 22 22 22 23 23
11 13 14 15 17 20 22 23 24 24 24 24 24 25 26 27 28 28 28 30 32 33 35 37 39 41 43 45 45 45 45 45 46 46 46 46 45 43 41 38 35 33 32 31 30 29 28 28 28 27 26 25 23 21 20 20 21 21 21 21 19 17 17 16 15 15 15 16 17 20 22 17 13 12 13 11 9 10 13 16 20 22 23 24 23
11 12 14 14 16 18 20 23 25 25 24 23 23 24 25 27 28 29 29 29 31 32 32 34 35 38 41 43 44 44 44 45 46 47 47 48 47 46 42 39 37 34 32 31 31 30 28 28 28 28 26 25 23 22 21 21 21 21 20 20 19 17 16 16 15 14 15 15 15 16 16 14 14 11 8 6 7 11 13 15 19 21 23 25 24
11 13 15 17 17 17 17 18 20 24 25 24 25 27 27 28 29 30 30 30 31 31 32 32 33 35 38 41 42 44 45 46 48 49 50 50 49 48 45 41 38 35 33 32 31 31 29 28 28 29 28 26 24 23 21 21 21 20 19 19 19 18 17 16 14 13 15 15 13 12 12 13 12 7 7 12 14 15 14 14 18 20 21 24 25
11 14 16 18 18 17 17 17 17 18 19 20 25 30 32 32 32 32 32 32 31 31 32 32 33 33 36 38 40 42 44 46 49 51 51 51 51 49 46 43 40 37 34 32 32 31 30 29 29 29 29 27 26 24 22 20 20 20 20 19 19 19 18 17 15 14 17 17 15 14 11 9 9 9 15 18 15 13 14 15 18 20 20 21 24
12 15 17 18 19 18 18 17 17 16 17 22 27 31 34 35 35 35 34 34 33 32 31 32 33 33 34 36 38 40 43 45 47 49 50 51 52 50 47 45 42 39 36 34 32 31 31 30 29 30 30 29 27 25 23 21 21 21 20 20 19 18 18 18 17 15 16 18 19 18 15 13 14 15 15 15 14 16 18 18 18 20 22 21 22
13 15 17 19 19 19 18 18 19 18 21 28 33 34 36 38 38 37 37 35 34 32 31 32 33 33 33 35 37 38 41 43 44 46 48 49 49 48 47 45 43 41 38 36 34 31 31 31 30 31 31 31 29 27 26 23 21 21 20 20 20 19 19 19 18 16 16 17 18 19 20 19 18 17 15 14 17 18 19 21 22 22 22 21 20
14 17 19 20 19 19 19 19 19 19 22 28 33 36 39 41 41 40 39 36 34 33 32 32 32 32 33 34 35 37 39 40 41 42 42 43 45 46 46 45 45 44 41 39 36 33 32 31 30 31 32 32 31 29 28 25 23 22 22 21 20 20 20 20 18 17 17 17 15 16 19 20 18 18 18 16 15 18 21 21 22 22 22 21 19
15 18 20 20 20 19 18 18 19 19 22 27 30 35 39 42 43 43 41 37 34 33 33 32 32 32 32 33 35 36 37 39 40 40 38 40 43 45 46 47 47 46 44 42 38 35 33 31 30 30 32 33 33 31 30 27 25 24 24 23 22 21 21 21 20 19 18 18 16 16 17 19 18 18 18 17 16 18 20 18 18 20 22 22 19
16 18 20 19 18 18 17 18 18 18 23 28 32 36 39 42 42 41 42 39 35 33 32 32 33 33 33 33 34 35 36 37 38 39 38 40 44 47 48 49 48 48 46 44 40 37 34 32 30 30 31 32 33 33 32 30 28 26 26 25 24 23 22 22 22 21 19 19 19 18 18 17 16 16 15 15 15 16 18 18 17 18 19 21 20
16 19 20 19 18 18 17 18 18 18 22 28 33 38 41 44 40 34 35 37 36 36 34 33 32 33 34 34 34 35 35 36 37 38 38 40 44 47 48 49 49 48 47 45 42 39 36 33 31 30 30 31 33 34 33 32 29 28 27 27 26 25 24 23 23 22 21 20 20 20 20 19 17 16 14 13 14 14 15 16 16 17 19 21 22
18 21 22 21 21 19 19 19 18 19 24 29 35 39 43 45 39 30 28 29 30 31 32 33 34 33 33 34 35 36 36 36 37 38 38 39 41 44 46 48 48 48 47 46 44 42 38 34 32 30 30 30 32 33 34 32 30 29 28 28 27 26 25 25 24 24 22 21 21 20 20 20 20 19 17 14 15 15 16 16 16 17 20 21 22
20 23 22 21 21 20 19 19 17 20 25 28 33 37 39 38 31 26 26 27 28 29 28 29 33 36 37 37 37 37 37 37 38 39 39 38 38 39 41 45 48 48 49 48 47 43 39 36 33 32 31 30 31 32 33 33 31 29 29 29 28 27 26 26 25 25 24 22 21 21 21 21 21 21 19 16 15 15 16 17 16 14 17 21 21
20 22 21 21 21 20 19 17 17 21 24 27 30 32 30 29 26 24 26 29 32 32 30 28 28 31 36 39 40 39 39 38 37 38 40 38 37 36 37 43 48 49 50 50 48 44 40 37 34 32 31 30 30 31 32 32 31 30 30 30 29 28 27 27 26 25 24 23 22 22 22 21 21 21 21 20 17 15 15 16 16 14 14 17 19
21 21 22 22 22 21 19 17 18 20 22 27 30 28 26 25 24 24 28 33 33 33 35 34 32 30 31 35 41 42 43 43 39 38 38 38 39 37 37 44 50 49 50 50 48 45 41 37 35 33 31 30 29 30 30 31 31 32 32 31 30 28 28 28 27 26 25 24 23 23 23 22 21 21 22 23 20 17 15 15 16 16 15 15 16
23 24 24 24 24 24 21 18 18 20 23 27 28 25 24 26 26 27 31 34 34 34 35 36 36 36 34 35 38 40 43 46 46 44 40 37 39 38 38 45 50 49 49 49 48 46 41 37 35 33 31 30 29 29 30 31 31 32 33 32 31 29 29 28 27 27 26 24 23 23 23 23 22 21 22 23 22 19 17 15 15 14 15 16 15
25 25 25 25 26 27 23 21 22 24 26 29 27 25 25 26 28 32 33 34 34 33 34 36 38 39 39 39 39 40 42 45 48 49 45 39 37 37 39 45 49 48 49 49 48 46 43 39 36 34 32 31 30 29 30 30 31 32 33 33 32 31 30 29 28 27 26 25 24 24 23 23 22 21 22 22 22 22 20 18 17 15 16 16 16
25 27 27 27 29 28 26 27 30 31 32 33 32 32 31 28 31 34 34 34 35 33 33 36 39 41 42 43 43 43 44 45 47 48 46 42 39 37 40 45 48 48 48 48 48 47 44 40 37 35 33 31 30 29 29 30 30 32 32 32 32 32 32 31 30 28 27 26 25 25 24 23 22 21 22 22 22 22 22 21 20 19 18 17 16
27 29 29 30 31 29 27 29 32 34 35 36 36 36 35 34 35 36 33 32 32 32 33 36 39 42 45 46 48 49 49 49 49 46 42 41 42 40 40 44 47 47 47 47 47 47 45 42 38 36 33 31 30 29 29 29 30 31 31 30 31 31 32 32 31 30 28 27 26 26 25 23 22 22 22 22 22 22 22 22 20 18 16 15 14
29 31 32 31 29 29 30 32 33 34 35 37 38 38 37 37 37 38 35 33 31 31 33 35 37 38 39 41 44 46 48 49 48 43 36 37 41 41 40 42 45 46 46 47 47 46 45 42 39 36 33 31 30 29 29 29 30 30 30 30 30 30 31 31 30 30 29 28 27 27 26 24 22 23 22 22 22 22 22 22 21 19 17 14 13
31 32 31 29 28 30 34 35 34 35 36 38 39 39 39 39 39 39 37 35 34 34 35 35 36 35 36 37 37 37 41 44 42 37 33 34 39 41 40 40 43 44 44 45 46 46 45 42 39 35 32 31 30 29 28 28 30 30 30 30 29 29 29 29 29 29 28 28 28 27 26 24 23 23 24 23 22 22 23 23 22 22 21 18 16
34 31 29 29 30 33 35 35 35 37 39 39 40 39 39 40 40 39 38 37 39 39 37 36 35 36 38 41 39 38 39 39 38 36 36 37 39 41 39 39 42 43 42 43 44 45 44 42 39 35 32 31 30 29 28 28 29 29 29 29 29 29 28 28 28 28 27 27 28 28 26 25 24 24 25 24 23 22 23 23 21 19 20 19 18
31 28 29 31 32 34 36 36 37 40 40 39 40 40 40 41 40 39 40 42 40 36 34 37 39 40 41 43 42 40 38 37 36 36 37 40 41 41 39 39 41 41 41 41 42 43 44 42 38 35 32 31 30 29 28 28 29 29 29 29 29 29 28 28 29 29 28 27 25 26 26 26 24 25 25 25 24 24 23 22 19 14 14 15 15
27 28 31 31 32 35 37 36 38 40 41 39 39 40 41 41 40 38 40 42 39 34 34 39 44 43 42 42 41 38 36 35 35 37 41 43 42 39 38 39 40 39 39 40 40 41 42 41 38 34 32 31 30 29 28 28 28 29 29 28 29 29 28 29 28 25 27 27 22 22 25 25 24 25 26 25 24 23 23 22 19 14 13 14 12
27 30 31 31 33 35 36 37 38 39 40 40 40 40 39 40 40 37 37 39 40 41 42 42 42 41 40 41 41 39 36 32 33 41 45 43 40 38 37 39 40 38 38 38 38 39 40 40 38 34 32 31 30 29 29 28 28 29 29 30 30 29 25 23 21 20 24 26 23 23 25 24 24 26 26 24 23 22 22 20 18 15 13 12 11
28 31 31 33 35 36 38 40 40 39 40 42 41 40 39 40 39 38 39 41 39 39 41 41 39 39 41 42 42 41 38 32 34 43 45 41 39 38 37 38 39 37 37 37 37 38 39 40 37 34 32 31 29 28 28 27 27 27 26 25 26 24 21 21 22 22 24 26 25 26 27 25 25 26 25 24 22 21 21 20 18 16 13 11 11
31 33 34 35 37 39 41 40 39 40 42 43 41 40 41 42 41 40 42 43 37 33 36 39 39 41 44 44 43 41 37 34 38 45 43 39 39 39 37 37 37 35 34 35 36 36 38 38 36 33 31 30 28 28 27 27 27 24 20 20 22 22 23 25 26 27 27 27 28 29 29 28 27 26 24 23 22 21 20 19 18 17 15 13 13
34 35 36 37 38 40 41 40 40 40 41 43 42 41 41 42 42 42 41 40 38 37 39 41 41 42 43 43 42 40 37 38 43 43 40 39 40 39 38 36 35 34 33 33 34 35 36 36 35 33 30 29 28 27 27 26 24 20 20 22 24 25 26 27 28 28 28 29 30 30 31 29 27 26 23 21 21 21 19 18 16 16 15 15 15
36 37 38 38 38 39 39 40 41 40 43 45 44 43 43 43 42 41 39 39 38 39 40 41 42 42 42 40 39 38 40 43 42 38 38 40 41 39 39 36 33 33 33 32 33 34 35 35 34 33 30 28 28 27 26 23 21 21 22 24 26 27 28 28 27 27 28 29 29 30 31 29 27 25 23 20 20 18 17 16 14 13 14 14 14
36 39 39 37 38 38 40 41 42 43 45 45 45 44 45 44 42 40 39 39 39 40 40 41 40 40 39 38 38 40 42 42 38 36 39 41 41 40 39 37 34 32 32 31 32 33 34 34 34 32 30 29 28 27 25 22 21 23 25 27 28 28 28 27 26 27 28 28 27 29 30 28 26 25 22 20 19 18 17 15 14 14 15 14 15
36 38 37 36 37 38 40 43 43 44 43 42 44 45 44 42 41 40 40 40 39 39 39 38 38 38 38 37 38 39 39 37 36 38 41 42 43 42 39 36 34 32 32 31 31 32 32 34 34 32 30 29 28 27 25 22 22 23 24 27 27 26 26 26 27 27 28 27 27 28 28 27 26 26 23 22 21 19 17 16 16 16 16 15 15
38 37 36 37 39 40 43 44 44 44 43 41 43 43 42 40 40 40 41 41 39 37 37 37 36 36 35 36 38 40 39 37 37 40 44 45 44 42 39 35 33 31 31 32 31 31 31 33 33 32 29 28 28 27 25 23 22 21 22 25 26 25 24 24 25 26 26 26 27 27 26 26 28 27 25 23 22 20 19 18 17 17 17 15 14
36 35 36 38 40 43 44 43 42 42 41 41 41 39 39 39 40 40 40 38 37 36 35 34 33 34 38 41 44 43 39 35 34 39 45 47 45 42 38 34 32 31 31 31 31 30 30 32 32 31 29 28 28 26 24 22 22 21 21 22 25 27 26 25 23 23 24 26 27 26 25 26 27 27 25 24 22 21 20 20 19 18 18 17 16
33 33 36 40 43 43 42 41 39 39 40 40 38 36 38 39 39 39 38 37 37 35 33 34 38 42 45 45 42 37 32 29 32 38 44 46 44 40 36 33 31 30 30 31 30 30 30 31 31 30 28 28 27 24 22 22 21 21 21 22 24 26 28 28 25 23 23 25 26 25 25 26 26 26 26 25 24 22 21 21 21 21 20 19 19
32 35 39 42 42 40 39 40 39 39 41 40 37 38 42 43 40 39 38 36 35 35 37 41 43 42 41 38 35 32 30 32 37 39 41 43 43 39 36 33 31 30 30 30 29 30 30 31 30 29 27 27 26 22 21 21 21 21 21 22 24 25 27 29 28 24 23 24 24 25 25 26 25 25 27 26 24 21 19 17 19 22 22 20 20
34 37 38 38 37 35 36 38 39 40 40 37 38 43 45 42 39 38 36 35 36 38 39 38 35 34 34 34 34 36 39 43 45 44 41 43 44 40 35 32 30 29 29 29 29 29 30 30 29 28 27 26 24 21 20 20 21 20 21 23 25 25 25 26 27 25 23 23 23 22 23 24 23 23 25 25 22 19 16 12 14 17 20 21 21
36 36 35 33 32 33 34 37 39 37 35 36 41 44 42 39 37 36 35 36 37 36 33 34 40 45 46 45 45 48 53 55 52 48 44 43 43 40 34 30 29 28 28 29 29 29 29 29 28 28 27 25 22 20 19 20 21 20 21 24 25 25 25 25 25 23 22 21 22 22 21 23 23 23 24 22 20 19 17 12 11 12 15 18 19
34 36 37 35 34 35 36 37 37 34 35 40 43 41 38 37 36 35 35 38 40 40 42 49 56 56 52 53 54 54 55 56 52 48 46 44 43 39 32 28 28 27 26 27 28 28 28 29 28 28 26 23 21 19 19 20 21 21 22 24 25 24 25 25 24 23 23 23 24 24 24 24 24 24 23 20 19 20 19 15 12 11 13 14 14
35 37 38 37 37 40 42 39 36 37 41 44 41 37 36 36 36 37 41 45 50 55 60 62 61 52 45 49 53 49 46 47 46 44 42 40 39 35 29 25 26 25 25 26 27 27 28 28 28 27 24 22 21 20 20 20 20 21 23 25 24 23 23 23 22 21 23 24 25 24 24 24 24 23 22 20 20 21 21 18 14 13 14 14 11
41 42 41 38 37 41 44 40 38 42 46 44 40 37 36 37 41 47 51 54 57 60 61 59 55 49 44 45 46 43 40 40 41 41 38 34 32 30 26 24 24 23 23 24 25 27 28 27 27 26 23 21 21 20 20 20 20 20 22 24 23 23 23 21 20 19 20 21 22 21 21 23 24 23 21 21 21 21 20 19 17 16 16 13 10
39 40 41 40 39 39 39 36 39 45 46 42 39 38 39 43 49 54 55 55 55 54 54 52 49 47 46 45 43 40 38 37 36 36 34 30 28 27 24 23 22 21 21 22 24 25 27 27 26 24 22 21 20 20 21 20 19 20 22 23 22 23 22 20 18 18 18 18 18 18 19 21 23 24 22 21 22 21 19 18 18 17 16 12 11
43 40 39 38 38 38 37 37 39 41 40 38 36 39 44 50 53 54 53 53 52 51 50 49 49 48 48 47 44 40 38 35 32 30 30 29 27 25 23 22 21 21 20 20 22 24 25 25 24 23 21 21 20 20 21 18 18 20 22 22 21 21 21 18 17 17 18 18 17 17 18 19 20 22 22 21 20 19 18 18 18 17 17 15 15
44 43 40 37 37 37 38 39 40 39 37 34 35 41 47 51 51 51 51 51 51 50 50 49 49 49 49 46 43 39 35 32 29 28 29 28 24 22 22 21 20 20 19 19 21 23 24 24 23 21 20 20 19 19 19 16 16 20 22 23 21 19 19 18 17 18 17 16 16 16 17 17 17 20 21 20 18 18 18 18 18 18 19 19 20
40 39 37 36 37 38 40 40 40 39 34 31 37 45 49 48 49 50 50 50 50 50 50 50 50 50 48 44 40 35 32 30 27 27 29 27 23 21 21 20 20 19 18 19 20 21 22 22 21 19 19 19 18 17 15 13 15 17 21 24 22 19 18 19 18 17 16 16 16 16 16 16 16 18 21 19 18 18 19 20 21 22 22 22 22
38 36 35 35 36 39 43 44 43 39 31 32 42 49 49 50 51 50 49 50 50 50 50 50 50 49 45 41 38 34 32 30 27 27 29 26 21 20 20 19 19 18 17 18 19 20 22 20 19 18 17 17 16 13 11 11 13 15 18 22 23 19 17 18 18 17 16 15 15 14 14 14 15 16 18 18 17 19 21 22 23 22 21 20 20
36 36 36 36 38 41 44 46 45 38 32 38 47 48 48 50 51 50 50 49 49 50 50 50 49 47 44 41 39 35 33 31 26 26 30 26 20 20 20 19 19 18 17 17 18 19 20 18 17 16 16 14 12 10 8 8 10 11 12 17 21 19 16 18 20 20 18 15 13 13 14 14 15 16 17 17 19 21 23 23 23 22 21 20 20
36 36 37 38 41 45 46 46 45 40 38 44 49 47 47 49 49 49 50 49 48 49 50 49 48 47 44 41 38 34 33 32 26 25 30 28 22 20 20 18 18 17 16 16 17 17 18 16 15 15 13 11 8 6 5 6 9 10 9 11 17 18 17 17 18 16 15 14 14 15 16 16 16 16 16 17 19 20 21 23 24 23 22 21 20
36 36 37 38 42 46 45 45 45 43 43 48 49 48 48 49 49 49 49 49 49 49 48 48 47 45 42 39 36 34 33 31 26 25 29 29 23 20 20 18 17 17 16 16 15 15 14 13 12 11 9 7 5 6 7 7 8 11 11 12 15 17 17 18 16 13 12 14 16 16 16 17 17 18 18 19 20 21 21 21 22 22 22 23 23
37 38 37 38 43 45 44 44 44 43 46 48 48 48 48 48 49 49 48 48 49 48 47 47 44 41 40 38 36 34 32 30 27 25 28 29 24 19 18 17 16 15 13 13 13 12 11 10 9 8 6 4 3 4 7 7 8 10 11 13 15 16 16 18 17 14 14 15 16 16 17 18 19 19 20 19 20 22 24 24 24 24 23 24 25
37 39 38 39 43 44 43 44 44 44 46 48 47 47 49 48 48 48 47 47 48 47 46 45 42 39 39 37 36 34 32 30 25 23 26 28 24 18 15 14 13 11 9 10 11 10 9 8 8 7 7 7 3 3 5 5 6 7 8 8 9 10 11 13 14 15 15 15 16 16 16 16 16 16 17 17 17 19 22 23 24 25 24 24 25
38 40 40 41 42 42 42 43 44 45 46 46 46 47 49 48 48 47 46 45 44 44 44 43 40 38 37 36 35 33 31 28 24 24 27 27 23 18 12 9 10 8 6 6 7 6 6 5 6 8 9 8 5 4 4 3 2 5 5 4 5 6 7 9 10 12 14 14 14 14 13 14 15 15 16 17 17 18 19 20 21 22 21 21 22
Wind_Direction
10 9 4 360 357 354 350 347 343 340 340 338 334 332 331 329 327 325 322 315 309 305 301 298 296 293 292 291 291 291 291 290 290 289 289 290 290 292 294 296 300 303 303 300 298 294 290 285 282 281 282 282 282 279 275 270 263 261 263 268 273 277 283 287 284 283 289 294 299 301 298 306 313 315 314 302 279 275 286 287 283 281 277 274 274
13 11 10 6 357 350 344 340 339 339 338 337 335 334 332 332 331 330 328 323 318 314 308 303 300 297 293 291 289 288 288 287 287 287 287 288 289 290 292 293 296 299 301 299 296 293 289 285 281 279 279 279 279 277 274 270 267 267 267 269 271 272 278 281 281 284 287 291 299 301 305 316 314 296 296 296 276 272 282 288 288 284 279 276 275
19 16 12 5 355 347 341 339 339 340 340 339 338 338 336 335 333 331 330 327 325 322 317 312 307 302 296 292 288 285 284 283 283 283 283 284 286 288 289 290 291 295 298 298 296 293 289 285 280 277 275 275 275 273 271 269 270 271 269 270 269 266 268 271 277 282 281 287 297 299 304 312 309 300 281 262 272 283 282 284 289 288 283 280 276
24 15 5 357 351 347 344 343 340 341 345 344 343 342 339 336 334 331 329 328 327 326 324 321 314 305 299 295 290 285 281 280 280 280 280 281 282 284 287 287 288 290 294 296 295 293 290 285 279 274 272 271 270 269 267 267 268 270 268 267 266 264 264 267 269 268 271 282 289 289 297 298 297 306 281 269 279 290 285 284 292 294 289 284 280
24 7 359 354 351 347 345 345 343 344 347 344 343 344 343 341 338 335 332 329 328 328 327 325 319 312 304 299 296 290 286 283 281 280 281 281 282 283 285 285 285 286 289 293 294 293 290 286 280 273 269 267 266 266 265 263 262 263 264 263 261 260 261 264 263 258 265 273 275 278 290 284 278 301 302 291 288 291 288 289 296 301 298 289 282
20 6 358 354 351 347 344 345 346 347 344 342 344 346 347 346 343 339 336 332 330 328 328 325 322 318 311 304 300 296 292 289 287 285 284 283 283 283 282 281 282 283 286 289 291 292 290 286 281 273 268 265 263 264 263 261 258 258 258 258 258 257 257 260 261 260 264 271 275 277 276 271 277 291 299 297 294 291 292 296 301 304 306 301 289
13 4 358 353 351 347 345 344 344 343 340 341 344 345 345 346 345 342 338 333 330 327 326 324 323 322 317 310 305 300 296 295 293 290 286 284 283 282 280 279 280 282 284 286 288 289 288 285 280 274 268 264 262 261 260 259 257 255 254 253 254 255 254 256 260 262 262 267 275 280 280 279 278 277 279 287 293 293 293 296 301 305 308 308 299
10 0 355 353 349 346 343 341 342 341 338 341 344 344 343 341 340 340 338 335 331 327 325 323 322 323 321 315 309 305 302 300 296 289 283 281 280 279 278 278 279 281 282 283 284 286 285 283 280 275 269 264 261 259 259 258 255 253 253 251 251 251 251 254 259 260 260 262 265 269 277 281 278 272 272 275 280 287 291 296 301 306 309 309 304
7 0 355 352 347 344 342 339 340 338 337 340 341 342 342 341 338 337 337 337 335 332 328 326 324 323 321 317 313 310 307 305 299 291 282 276 275 275 275 275 276 278 279 280 281 282 283 282 279 275 270 265 261 259 258 257 254 252 251 251 251 249 250 253 256 258 258 260 259 257 266 275 276 274 272 268 266 275 285 292 299 303 306 307 305
2 360 355 350 345 342 339 338 338 335 336 338 338 339 341 342 339 335 335 337 338 337 334 332 329 326 324 320 318 315 311 307 300 293 285 277 276 275 274 274 274 275 276 276 278 279 280 280 277 275 270 265 261 259 258 256 254 251 250 251 252 251 250 251 254 258 258 258 258 258 260 265 269 271 269 267 266 268 276 285 293 299 301 303 303
360 358 353 347 342 340 338 338 336 334 334 334 336 338 340 341 339 333 332 334 337 339 338 337 336 332 328 325 321 318 315 310 300 294 288 282 279 279 277 275 273 272 272 273 275 277 278 278 276 274 270 264 260 257 257 256 253 252 250 250 251 251 251 251 253 256 257 258 258 258 260 260 259 260 261 263 265 266 273 282 289 293 294 296 299
359 353 347 342 339 338 338 337 335 332 332 333 336 339 339 339 337 331 330 331 332 334 334 334 337 338 335 331 326 323 320 313 305 298 291 284 280 279 278 276 273 271 270 270 272 274 276 276 275 273 269 265 260 256 255 254 252 250 250 250 250 249 249 249 251 255 257 257 258 259 260 261 260 259 259 260 261 264 273 280 285 292 294 296 300
354 347 342 339 337 336 335 335 333 330 331 333 336 338 336 335 333 329 329 332 333 334 332 328 329 334 338 337 335 331 326 319 312 305 297 287 279 275 274 273 273 272 271 270 270 272 274 274 274 273 271 267 262 256 253 252 250 247 247 249 249 249 248 248 250 254 257 257 257 258 259 260 261 261 258 257 260 263 270 277 283 288 290 295 301
349 344 339 336 334 332 332 332 329 328 330 333 334 333 331 330 329 327 327 333 338 340 339 334 327 327 330 334 336 335 332 328 321 313 305 294 282 274 268 269 274 276 273 271 269 269 270 272 272 271 270 268 262 257 252 250 247 243 243 245 247 249 249 249 249 251 255 256 256 256 258 259 260 259 257 256 258 260 265 273 283 288 287 291 299
347 343 337 335 333 331 331 331 329 328 329 332 333 331 330 330 330 327 327 333 338 340 340 340 337 332 327 330 332 332 332 331 327 321 312 301 291 281 268 268 276 278 275 272 268 266 267 268 268 268 267 266 261 256 252 249 245 242 241 242 243 246 247 247 249 250 252 254 255 255 256 258 259 257 256 256 256 257 259 264 276 287 291 292 297
346 342 339 338 336 333 332 329 328 326 326 331 333 334 335 335 333 328 326 329 334 336 337 339 339 338 335 334 333 331 328 327 326 325 321 311 300 288 273 272 279 279 275 272 267 264 264 265 265 265 264 262 259 255 251 248 245 244 243 241 240 241 243 245 247 249 252 252 253 254 254 256 257 256 254 255 256 255 254 257 264 275 286 293 299
345 343 341 339 337 335 331 329 329 329 331 335 336 335 335 334 331 326 321 321 325 329 333 336 337 337 337 337 337 334 330 326 324 323 322 319 308 292 278 276 280 280 276 272 267 264 262 262 263 263 263 260 257 254 250 247 245 244 244 243 241 240 240 242 243 246 250 252 253 254 254 255 255 253 251 254 256 256 255 255 256 258 267 280 292
343 342 340 339 337 335 333 331 332 333 334 334 333 330 327 324 324 324 318 313 315 320 326 330 332 332 331 331 333 334 332 329 326 321 317 315 313 301 286 281 282 282 279 273 268 263 259 259 261 262 262 260 257 254 251 248 245 244 244 244 244 242 241 241 242 244 246 249 252 253 253 254 253 250 250 251 254 258 258 258 258 259 264 269 277
339 339 339 337 336 338 338 333 330 330 329 327 326 324 321 318 318 322 319 313 312 315 319 321 323 324 325 325 328 330 331 330 327 321 311 308 312 309 296 288 285 283 280 275 269 262 258 257 259 261 262 260 257 255 253 250 246 245 244 243 243 245 244 244 244 244 244 245 248 250 252 252 252 249 248 249 251 256 260 263 261 259 261 261 265
338 337 336 337 339 340 338 331 326 326 324 323 322 320 318 317 316 318 318 315 312 311 313 315 316 316 315 317 320 324 327 326 324 320 311 306 310 311 301 292 287 285 282 277 270 263 257 255 257 260 262 260 258 255 253 251 247 246 245 243 243 244 245 246 246 245 244 243 244 246 248 249 250 249 248 248 249 253 259 263 263 257 251 249 254
337 336 336 339 341 338 332 327 325 324 323 322 322 320 319 317 316 316 315 314 313 311 310 310 312 311 310 309 309 312 318 320 319 318 314 311 313 312 304 292 287 287 283 277 270 263 257 254 255 258 260 260 258 256 255 252 249 248 246 245 243 243 244 245 245 244 244 244 243 243 245 246 245 246 247 248 249 253 257 260 264 262 254 247 247
334 337 341 342 339 334 331 328 326 326 325 325 323 322 321 319 317 314 311 312 312 311 311 310 310 311 311 310 308 309 313 315 315 317 319 319 319 316 307 294 287 287 284 277 270 262 256 254 254 257 259 259 258 257 256 253 252 250 247 245 244 244 242 240 240 240 239 241 243 243 243 242 241 241 243 246 248 251 255 259 264 263 256 252 250
335 342 345 341 336 333 331 329 328 327 327 326 325 323 322 319 317 314 312 315 313 307 307 310 310 309 310 309 307 307 311 311 310 313 317 321 322 318 309 297 290 288 284 277 269 261 255 253 253 256 258 258 257 257 256 254 252 251 248 246 245 244 242 239 238 238 236 236 238 241 242 239 237 238 241 244 246 247 250 254 256 252 249 252 251
343 345 341 336 334 332 331 329 328 327 326 325 324 323 320 319 318 316 315 318 318 310 303 305 308 307 306 305 303 302 304 304 304 309 313 317 320 317 307 299 293 288 283 277 268 259 253 250 251 254 258 259 258 257 256 254 252 250 248 246 246 245 244 242 239 237 236 234 230 234 239 237 234 235 239 242 245 246 247 247 247 244 243 248 250
346 341 337 335 334 332 331 330 327 326 326 325 324 323 322 321 318 318 317 316 317 315 308 304 306 305 303 303 302 300 300 298 300 308 313 315 319 316 307 300 294 287 282 276 267 258 252 249 249 253 258 260 259 258 257 256 253 251 248 246 246 246 244 242 238 234 235 234 230 230 233 234 232 232 236 240 243 246 247 246 243 242 242 246 253
342 338 336 335 333 331 331 330 328 327 327 326 325 324 324 322 319 317 318 316 313 312 309 305 303 304 304 305 304 302 299 294 296 307 312 317 321 319 310 303 295 288 282 275 267 258 252 249 249 254 259 260 259 257 258 257 255 252 248 244 245 244 241 240 238 236 234 233 231 230 230 231 231 232 235 239 243 246 248 247 243 238 237 240 247
336 335 334 332 330 330 331 330 328 328 327 326 325 323 323 322 320 317 318 317 312 308 307 304 303 304 305 306 306 303 298 293 297 305 311 320 325 323 316 307 297 289 280 272 265 259 253 250 251 255 259 260 259 257 257 258 256 251 243 239 239 238 238 239 240 239 236 231 229 229 230 230 230 231 233 237 243 246 247 246 241 236 235 237 242
335 333 332 330 329 330 331 331 330 329 329 327 325 323 323 322 321 319 319 317 313 308 307 306 305 305 305 306 307 304 300 297 299 305 314 324 328 325 320 310 296 287 279 270 264 259 254 251 251 255 259 260 259 258 257 257 253 245 237 236 238 238 239 241 243 244 240 235 232 233 234 233 230 230 232 237 242 244 240 237 233 231 236 241 248
334 331 330 330 330 332 333 332 331 330 329 327 325 324 325 323 322 320 319 317 314 311 309 308 308 307 307 307 307 306 304 301 301 308 320 327 330 327 321 311 297 285 278 271 263 258 254 251 252 256 260 260 259 259 258 255 248 242 238 237 238 240 242 245 246 247 245 241 238 237 236 234 228 227 231 233 232 229 227 227 227 230 237 244 254
334 330 330 330 330 332 333 331 330 328 327 327 326 325 325 323 322 320 319 317 316 313 311 311 310 310 310 309 308 308 306 302 302 313 324 329 330 327 319 310 298 285 277 270 263 258 255 252 252 255 260 262 262 261 259 254 249 247 245 243 243 245 249 250 248 247 248 246 241 237 236 232 225 224 225 221 215 216 222 229 232 237 240 243 251
332 330 330 331 331 332 332 331 329 327 327 328 327 325 323 322 321 320 318 317 316 315 315 314 313 312 312 311 310 309 306 304 308 317 325 329 329 325 318 309 297 284 275 269 263 260 257 253 253 256 261 265 265 263 261 256 251 248 249 252 254 253 253 253 250 248 247 246 243 239 234 228 223 220 216 211 211 215 223 228 231 237 241 243 246
331 332 332 332 332 331 331 330 329 327 326 326 325 324 323 322 320 319 318 318 318 318 317 317 316 316 316 316 317 315 312 312 314 318 324 328 326 323 317 307 296 283 274 268 263 261 258 255 254 257 263 267 266 264 263 260 255 247 243 251 260 261 256 252 249 248 246 243 242 240 233 225 220 216 211 211 215 219 222 225 229 235 241 243 244
331 333 334 333 331 329 329 329 327 326 324 323 323 322 321 320 319 318 318 319 319 319 319 319 320 321 320 320 321 319 315 313 316 319 323 327 325 321 316 306 295 284 274 268 265 262 259 256 256 259 265 268 267 266 264 262 260 251 236 238 252 261 261 256 251 249 246 241 239 238 234 226 219 215 212 213 218 222 223 225 227 232 237 241 246
333 333 333 331 329 327 326 326 325 324 322 321 321 320 320 320 319 318 319 320 320 320 320 318 317 319 320 320 318 315 309 310 317 321 323 326 325 320 314 306 294 282 274 269 266 263 260 257 257 261 266 269 267 266 264 261 259 252 239 233 240 251 259 260 256 251 247 243 238 233 230 226 220 214 211 214 220 224 225 225 226 228 230 234 242
333 332 330 329 327 326 326 326 325 323 323 322 322 323 323 322 321 321 322 322 322 322 320 319 320 324 326 324 320 316 313 315 320 322 321 323 324 320 313 306 294 282 275 270 267 263 260 258 259 263 267 269 268 266 264 260 256 248 241 235 234 240 250 256 257 253 247 243 238 232 228 225 219 213 211 216 223 224 222 226 230 229 228 230 235
331 330 330 329 328 327 326 326 324 324 325 325 324 325 324 322 321 322 322 322 323 323 323 324 325 326 325 321 317 316 317 317 317 319 319 319 322 320 312 304 294 281 274 269 265 262 260 259 261 266 269 269 267 266 263 259 256 249 240 234 232 234 239 247 253 253 248 242 236 231 227 223 218 212 211 217 224 222 218 226 234 232 229 231 238
328 329 330 329 327 326 326 325 324 325 326 325 323 324 323 321 322 323 323 323 322 320 321 320 319 316 313 310 307 307 310 312 313 314 314 314 317 318 311 302 292 280 271 267 265 263 261 261 264 268 270 269 267 265 262 257 254 248 238 231 230 231 232 235 240 243 240 237 231 227 225 223 217 211 209 214 220 221 222 228 233 234 232 233 241
330 332 331 330 329 328 329 328 327 326 326 325 325 325 324 324 325 324 324 325 321 316 313 313 315 316 312 309 309 308 307 307 308 308 308 308 312 314 308 299 290 280 271 266 265 264 263 262 266 269 270 270 268 264 260 257 252 245 236 229 228 231 231 230 231 234 233 233 231 225 222 222 216 210 209 212 213 216 223 230 230 230 233 233 241
334 334 331 331 330 331 333 334 331 328 327 328 330 328 326 326 324 319 318 321 320 316 315 316 320 322 314 312 317 318 311 307 307 308 309 309 310 310 305 294 287 279 270 264 262 264 263 264 267 270 271 271 269 266 262 258 252 243 233 226 225 228 229 228 230 232 233 237 238 229 222 220 216 210 211 214 212 212 222 232 235 234 236 239 246
335 334 333 333 332 333 336 335 332 329 330 333 333 330 327 325 321 318 318 319 319 319 320 322 325 325 319 317 321 320 313 308 307 309 311 309 307 307 302 293 285 276 268 263 261 263 264 265 268 271 272 272 270 267 264 259 251 240 228 222 223 226 226 225 226 227 230 236 239 232 223 220 217 214 215 217 215 213 219 231 241 247 249 253 262
335 335 335 335 334 334 334 330 329 330 332 335 334 328 323 322 321 322 323 324 324 325 326 327 327 327 326 327 326 323 317 312 311 312 310 306 305 305 299 289 282 274 267 264 262 262 264 266 269 272 274 274 271 269 266 258 247 236 223 217 222 226 224 222 223 225 225 227 229 230 225 219 216 217 218 217 215 213 216 227 242 254 260 264 269
338 339 338 336 332 332 331 328 329 331 332 333 331 325 323 326 329 330 330 331 331 331 331 332 332 332 332 332 331 329 326 323 322 318 311 306 307 305 295 285 279 273 268 265 262 263 266 268 271 274 275 275 273 271 267 256 242 231 218 210 219 227 223 218 219 222 224 224 224 225 221 215 213 214 213 210 211 213 218 227 238 251 259 262 265
337 337 337 335 331 329 330 329 330 332 332 331 329 326 327 330 333 334 334 335 336 336 336 336 336 335 334 332 332 332 329 329 329 321 313 313 312 302 292 285 278 271 268 267 265 266 267 269 273 277 278 278 275 269 265 254 237 228 217 207 212 223 221 217 219 222 224 224 220 214 211 208 207 207 207 208 212 218 224 230 238 246 252 255 256
334 333 334 333 329 329 330 330 333 336 334 330 330 331 332 335 337 337 337 337 338 339 338 336 335 335 334 334 334 334 333 334 330 319 318 321 316 304 294 285 278 272 269 269 268 268 269 272 276 280 279 278 275 268 262 249 232 227 219 206 205 216 221 219 219 219 219 220 217 213 210 208 208 213 218 221 226 231 236 241 246 249 250 250 249
331 331 331 331 330 331 332 334 339 341 336 330 334 337 339 341 341 340 339 339 339 338 336 334 334 335 336 337 338 337 336 334 324 315 321 325 315 305 299 285 279 276 269 269 270 270 272 276 280 282 280 276 273 267 259 245 229 226 219 207 203 210 218 220 219 219 220 220 219 219 219 218 221 227 230 231 233 235 238 240 243 244 244 242 242
331 331 331 331 331 334 335 338 343 345 337 333 339 344 344 343 342 342 342 340 338 337 335 334 335 337 339 340 339 335 332 331 322 315 323 327 314 305 302 288 281 279 272 271 272 271 276 283 284 282 278 272 269 261 246 228 216 211 209 205 203 205 212 219 223 224 223 221 219 222 224 223 225 228 227 226 226 228 230 232 234 236 237 235 235
333 332 333 333 334 337 339 341 345 347 339 337 343 348 347 344 344 345 344 341 339 338 337 337 338 340 341 340 336 331 327 327 321 314 322 326 318 309 304 292 284 282 277 275 276 277 283 286 284 280 274 265 260 240 211 204 197 186 181 192 200 204 209 213 213 211 210 209 211 216 220 220 221 223 224 223 223 225 228 231 233 236 236 234 235
336 334 335 335 336 339 342 344 347 347 340 339 346 350 348 347 348 348 345 342 341 340 339 339 340 341 340 339 335 329 324 324 320 314 319 325 320 309 306 298 288 285 283 283 286 288 288 285 279 274 262 245 233 205 190 191 191 186 187 196 201 205 206 201 191 185 194 206 210 214 220 225 227 229 229 229 229 231 235 237 238 241 242 241 241
338 338 338 336 337 341 345 347 348 345 340 342 348 350 350 351 351 349 347 344 343 342 341 341 341 340 341 338 333 326 323 324 321 316 319 324 322 313 307 299 291 290 290 291 293 290 283 273 262 248 220 194 213 215 196 195 199 198 201 206 209 213 216 212 207 207 218 225 226 228 232 235 236 235 235 235 236 239 241 244 244 245 246 247 246
338 340 341 338 338 343 347 348 347 344 343 347 350 351 352 354 353 351 349 346 345 344 343 342 342 342 342 337 330 326 326 326 323 319 321 325 325 321 313 302 296 296 292 290 289 283 272 257 236 211 178 160 171 221 209 209 208 186 178 190 203 211 218 221 221 224 229 236 240 239 239 240 238 237 237 238 239 242 245 248 249 247 247 248 249
339 342 342 340 341 346 348 348 348 346 347 351 352 352 354 355 354 352 350 349 348 346 344 344 345 344 341 336 331 329 330 329 327 326 329 331 330 328 325 311 301 302 301 293 281 264 256 242 203 175 164 163 182 198 185 173 177 171 176 213 230 224 225 224 218 216 221 232 241 243 244 244 241 238 237 237 240 246 251 253 253 251 249 248 249
Height
1519 1519 1519 1519 1518 1517 1516 1515 1514 1512 1510 1509 1507 1505 1504 1502 1501 1499 1497 1495 1493 1492 1490 1488 1487 1485 1483 1482 1480 1479 1477 1475 1474 1472 1471 1471 1470 1470 1470 1470 1469 1468 1467 1466 1465 1464 1463 1462 1461 1460 1459 1458 1457 1457 1457 1456 1456 1456 1455 1455 1455 1454 1454 1454 1454 1453 1452 1450 1449 1447 1446 1444 1443 1441 1440 1440 1439 1438 1437 1437 1436 1436 1436 1435 1435
1518 1519 1519 1518 1517 1516 1514 1513 1511 1510 1509 1507 1505 1503 1502 1500 1498 1497 1495 1493 1490 1489 1487 1485 1483 1482 1480 1479 1477 1476 1474 1472 1470 1468 1467 1466 1466 1466 1466 1466 1465 1464 1463 1462 1461 1461 1460 1459 1458 1457 1456 1455 1454 1454 1453 1453 1452 1452 1452 1452 1452 1451 1451 1451 1451 1451 1450 1449 1448 1446 1443 1442 1442 1440 1439 1438 1438 1438 1437 1436 1435 1435 1434 1432 1431
1518 1518 1518 1518 1517 1515 1513 1511 1509 1508 1506 1505 1503 1502 1500 1498 1497 1495 1493 1491 1488 1486 1484 1482 1480 1478 1477 1476 1475 1473 1471 1469 1466 1465 1463 1461 1461 1461 1461 1462 1461 1460 1459 1459 1458 1457 1456 1455 1455 1454 1453 1452 1451 1451 1450 1449 1449 1449 1449 1449 1449 1449 1449 1449 1449 1449 1448 1448 1447 1445 1443 1442 1441 1440 1438 1437 1437 1437 1436 1436 1434 1433 1432 1430 1429
1517 1518 1517 1516 1515 1514 1512 1510 1508 1506 1504 1503 1502 1500 1498 1497 1495 1492 1490 1488 1486 1483 1481 1479 1477 1475 1473 1472 1472 1470 1468 1466 1463 1461 1460 1458 1457 1456 1456 1457 1457 1456 1455 1454 1454 1453 1452 1452 1451 1450 1449 1449 1448 1448 1447 1446 1446 1446 1446 1446 1446 1446 1445 1446 1447 1447 1446 1446 1446 1445 1443 1442 1440 1439 1437 1435 1435 1435 1434 1434 1433 1432 1430 1428 1427
1517 1516 1516 1515 1513 1512 1511 1509 1508 1505 1504 1502 1501 1499 1496 1494 1492 1490 1488 1485 1483 1481 1478 1476 1474 1473 1471 1468 1467 1466 1464 1462 1460 1457 1456 1454 1453 1453 1452 1452 1452 1452 1451 1450 1449 1449 1448 1448 1448 1447 1446 1445 1445 1444 1444 1443 1443 1443 1443 1443 1443 1443 1443 1443 1443 1444 1444 1444 1444 1443 1442 1441 1440 1438 1435 1433 1432 1432 1432 1431 1431 1429 1428 1426 1425
1515 1515 1514 1513 1512 1510 1509 1507 1506 1504 1503 1501 1499 1497 1495 1492 1490 1488 1485 1483 1480 1479 1476 1474 1471 1470 1468 1466 1463 1462 1460 1458 1456 1454 1453 1451 1449 1449 1449 1447 1447 1447 1446 1445 1445 1444 1444 1443 1443 1443 1442 1442 1441 1441 1440 1440 1439 1440 1440 1440 1440 1440 1440 1439 1440 1441 1441 1441 1441 1440 1440 1439 1438 1437 1436 1432 1430 1429 1429 1428 1427 1426 1425 1424 1423
1514 1514 1513 1511 1510 1509 1507 1506 1504 1503 1501 1499 1497 1495 1493 1490 1488 1486 1483 1481 1478 1476 1474 1471 1469 1467 1465 1463 1461 1459 1456 1454 1453 1451 1449 1447 1445 1444 1443 1442 1442 1442 1442 1441 1440 1440 1440 1439 1439 1439 1438 1438 1437 1437 1436 1436 1436 1436 1437 1437 1437 1437 1437 1436 1436 1437 1438 1438 1438 1437 1436 1436 1436 1436 1435 1432 1429 1426 1426 1425 1424 1423 1422 1421 1421
1513 1512 1511 1510 1509 1507 1506 1504 1503 1501 1499 1497 1495 1492 1490 1488 1486 1484 1482 1479 1476 1474 1471 1469 1466 1464 1462 1460 1457 1456 1453 1451 1450 1449 1446 1443 1441 1439 1438 1438 1437 1437 1437 1437 1436 1436 1435 1435 1434 1434 1434 1434 1434 1433 1433 1433 1433 1433 1433 1433 1433 1434 1433 1433 1433 1434 1435 1435 1436 1436 1434 1433 1433 1433 1432 1431 1429 1425 1423 1423 1422 1421 1420 1420 1420
1512 1510 1509 1508 1507 1506 1504 1503 1501 1500 1498 1496 1494 1491 1489 1486 1483 1481 1479 1476 1474 1471 1469 1466 1464 1461 1459 1457 1454 1452 1450 1448 1447 1446 1444 1441 1438 1436 1435 1433 1432 1432 1432 1432 1432 1431 1430 1430 1430 1429 1429 1429 1429 1429 1429 1429 1429 1429 1429 1430 1430 1430 1430 1430 1430 1431 1431 1432 1433 1434 1433 1431 1430 1430 1430 1429 1428 1425 1422 1421 1421 1420 1419 1419 1419
1510 1509 1508 1507 1506 1505 1503 1501 1500 1498 1496 1494 1492 1489 1487 1484 1481 1478 1475 1473 1471 1468 1466 1463 1461 1458 1456 1454 1451 1449 1447 1445 1443 1441 1441 1439 1435 1433 1431 1430 1428 1427 1426 1426 1427 1427 1426 1426 1425 1425 1424 1424 1424 1424 1424 1425 1425 1426 1426 1426 1426 1427 1427 1427 1427 1427 1428 1429 1430 1430 1430 1429 1428 1428 1427 1426 1425 1424 1422 1420 1420 1418 1417 1416 1416
1508 1507 1507 1506 1505 1503 1501 1500 1498 1496 1494 1492 1489 1487 1484 1481 1479 1476 1473 1470 1468 1465 1463 1461 1459 1456 1453 1451 1448 1446 1444 1442 1440 1438 1437 1435 1431 1429 1427 1426 1424 1423 1422 1422 1421 1422 1422 1421 1421 1420 1420 1420 1420 1420 1420 1420 1421 1421 1422 1422 1422 1423 1423 1423 1423 1423 1424 1425 1426 1426 1426 1426 1426 1425 1425 1424 1423 1422 1421 1419 1418 1416 1414 1413 1412
1507 1506 1505 1504 1503 1501 1499 1497 1496 1494 1492 1489 1487 1484 1482 1479 1476 1473 1471 1469 1466 1463 1460 1457 1455 1453 1451 1449 1446 1444 1442 1440 1438 1435 1434 1432 1429 1426 1423 1421 1420 1419 1418 1417 1417 1417 1417 1417 1416 1416 1415 1415 1415 1415 1416 1416 1417 1417 1418 1418 1418 1419 1419 1420 1419 1419 1420 1421 1422 1422 1423 1422 1422 1422 1422 1422 1421 1420 1419 1417 1416 1414 1411 1409 1408
1506 1505 1504 1502 1501 1499 1497 1495 1494 1492 1490 1487 1485 1482 1479 1477 1474 1471 1469 1466 1464 1461 1458 1455 1452 1450 1447 1446 1443 1441 1439 1437 1435 1433 1431 1430 1427 1424 1421 1417 1415 1414 1413 1412 1412 1412 1412 1412 1412 1411 1411 1411 1411 1411 1411 1412 1413 1413 1413 1414 1414 1415 1416 1416 1416 1416 1416 1417 1418 1419 1419 1419 1419 1419 1419 1419 1418 1417 1416 1414 1414 1413 1410 1407 1405
1506 1505 1503 1502 1500 1498 1495 1494 1492 1490 1488 1485 1483 1480 1477 1474 1472 1469 1466 1464 1461 1458 1455 1453 1450 1447 1444 1441 1439 1437 1436 1434 1431 1429 1427 1426 1424 1422 1419 1414 1411 1410 1409 1408 1408 1408 1408 1407 1407 1407 1406 1406 1406 1406 1407 1408 1408 1409 1409 1410 1410 1411 1412 1412 1412 1413 1413 1413 1415 1415 1415 1415 1415 1415 1415 1415 1415 1414 1413 1412 1411 1410 1409 1406 1403
1506 1504 1503 1501 1499 1497 1494 1492 1490 1488 1486 1483 1481 1478 1475 1472 1470 1467 1464 1461 1458 1455 1452 1450 1447 1445 1442 1439 1436 1433 1430 1428 1427 1425 1423 1420 1418 1417 1415 1410 1407 1406 1405 1404 1404 1403 1403 1403 1403 1403 1402 1402 1402 1402 1402 1403 1404 1404 1405 1406 1407 1407 1408 1408 1409 1409 1409 1410 1411 1412 1412 1412 1412 1412 1412 1412 1412 1412 1411 1410 1409 1407 1406 1404 1402
1505 1503 1502 1500 1498 1497 1494 1492 1489 1486 1484 1481 1478 1475 1472 1470 1468 1466 1463 1459 1456 1453 1449 1447 1444 1441 1439 1436 1433 1430 1427 1423 1421 1419 1418 1415 1413 1411 1409 1405 1403 1403 1401 1400 1399 1399 1399 1399 1399 1399 1399 1399 1398 1398 1398 1398 1399 1400 1401 1402 1403 1404 1404 1405 1405 1405 1406 1407 1407 1408 1409 1408 1409 1409 1409 1409 1409 1409 1408 1408 1407 1406 1404 1402 1400
1504 1502 1500 1498 1497 1496 1494 1492 1489 1486 1483 1480 1477 1474 1471 1468 1466 1463 1460 1457 1454 1451 1447 1444 1441 1438 1435 1433 1430 1427 1424 1421 1417 1413 1412 1410 1408 1406 1403 1400 1398 1397 1396 1395 1395 1395 1395 1395 1395 1395 1395 1395 1394 1394 1394 1394 1394 1395 1396 1398 1399 1400 1400 1401 1402 1402 1402 1403 1404 1404 1405 1405 1405 1406 1406 1405 1406 1406 1405 1405 1404 1404 1403 1400 1398
1503 1501 1499 1497 1495 1493 1491 1491 1489 1486 1483 1480 1477 1474 1471 1468 1464 1461 1458 1454 1451 1449 1445 1442 1438 1435 1432 1429 1426 1423 1420 1417 1414 1410 1407 1405 1403 1401 1399 1395 1392 1391 1390 1390 1390 1390 1390 1390 1390 1391 1391 1391 1390 1390 1390 1390 1390 1391 1392 1393 1394 1395 1396 1397 1398 1399 1399 1399 1400 1401 1401 1402 1402 1402 1402 1403 1403 1403 1402 1402 1402 1401 1401 1399 1397
1500 1498 1497 1495 1493 1491 1489 1488 1487 1485 1482 1479 1476 1473 1470 1467 1463 1459 1456 1452 1449 1447 1444 1440 1436 1432 1428 1425 1421 1418 1415 1412 1409 1407 1404 1401 1398 1396 1394 1390 1388 1386 1385 1385 1384 1385 1385 1385 1385 1386 1386 1387 1386 1386 1386 1386 1386 1387 1388 1389 1390 1391 1392 1393 1394 1395 1396 1396 1397 1397 1398 1398 1399 1399 1399 1400 1400 1400 1399 1399 1399 1399 1399 1398 1397
1499 1497 1495 1493 1492 1490 1489 1487 1485 1482 1479 1476 1473 1470 1466 1463 1460 1457 1454 1450 1447 1444 1442 1438 1434 1431 1427 1423 1418 1414 1410 1407 1404 1401 1399 1397 1394 1392 1389 1385 1383 1382 1380 1380 1379 1380 1380 1380 1381 1381 1382 1382 1382 1381 1381 1381 1382 1383 1385 1385 1386 1387 1387 1389 1390 1391 1392 1392 1393 1394 1394 1395 1396 1396 1396 1396 1397 1397 1397 1396 1396 1396 1397 1397 1396
1498 1496 1494 1493 1491 1489 1488 1486 1482 1480 1476 1473 1470 1466 1463 1460 1456 1453 1451 1448 1444 1441 1438 1435 1431 1428 1425 1422 1417 1412 1408 1404 1400 1397 1394 1392 1390 1387 1385 1382 1378 1377 1376 1375 1375 1375 1376 1376 1376 1377 1377 1378 1378 1377 1377 1377 1378 1379 1381 1382 1382 1383 1384 1385 1386 1387 1388 1389 1389 1390 1391 1392 1392 1392 1393 1393 1394 1394 1394 1394 1393 1393 1394 1395 1395
1498 1495 1493 1492 1490 1488 1486 1483 1480 1477 1474 1470 1467 1463 1460 1456 1453 1450 1447 1444 1441 1438 1434 1431 1428 1425 1422 1419 1416 1412 1407 1402 1398 1394 1391 1388 1386 1383 1381 1378 1375 1373 1372 1371 1370 1371 1371 1372 1372 1373 1373 1374 1373 1373 1373 1373 1374 1375 1377 1378 1378 1379 1381 1382 1383 1384 1384 1385 1386 1387 1388 1388 1389 1389 1389 1390 1391 1391 1391 1391 1391 1391 1390 1391 1393
1497 1495 1493 1491 1489 1486 1484 1480 1478 1475 1471 1468 1464 1461 1457 1453 1450 1447 1443 1439 1436 1434 1431 1428 1424 1421 1418 1415 1412 1409 1405 1400 1396 1391 1387 1385 1381 1378 1376 1373 1370 1369 1367 1366 1366 1366 1367 1368 1368 1368 1369 1369 1369 1369 1369 1369 1370 1371 1372 1374 1375 1376 1377 1378 1379 1380 1381 1382 1382 1383 1384 1385 1386 1386 1386 1387 1387 1388 1388 1388 1389 1389 1389 1389 1390
1495 1494 1492 1490 1488 1485 1482 1478 1475 1471 1468 1464 1461 1457 1454 1450 1447 1443 1439 1435 1431 1429 1427 1423 1419 1416 1413 1410 1407 1404 1400 1396 1392 1388 1384 1381 1377 1375 1371 1368 1365 1364 1363 1362 1361 1361 1363 1363 1364 1364 1365 1365 1365 1365 1365 1365 1366 1367 1368 1370 1371 1372 1373 1374 1376 1376 1377 1379 1379 1380 1380 1381 1382 1382 1383 1384 1384 1385 1385 1386 1387 1387 1387 1387 1387
1494 1493 1491 1489 1486 1483 1480 1477 1473 1469 1465 1462 1457 1454 1450 1446 1443 1439 1435 1431 1427 1424 1421 1417 1413 1410 1408 1405 1402 1398 1395 1391 1388 1384 1380 1377 1373 1371 1368 1364 1361 1360 1359 1358 1357 1357 1358 1359 1360 1360 1361 1361 1361 1361 1361 1361 1362 1363 1364 1365 1367 1368 1369 1370 1372 1372 1373 1375 1376 1377 1377 1378 1378 1379 1380 1380 1381 1382 1382 1383 1384 1384 1384 1385 1385
1494 1492 1489 1487 1484 1481 1479 1475 1472 1468 1464 1459 1455 1450 1446 1442 1439 1435 1432 1427 1422 1419 1415 1412 1409 1406 1403 1400 1396 1393 1390 1386 1383 1379 1376 1373 1369 1366 1363 1359 1356 1355 1354 1353 1352 1352 1353 1354 1356 1357 1357 1357 1357 1357 1357 1357 1358 1359 1360 1361 1362 1364 1365 1366 1367 1368 1369 1371 1372 1373 1374 1374 1375 1375 1376 1377 1378 1378 1379 1380 1381 1381 1382 1383 1383
1493 1490 1488 1486 1482 1480 1476 1473 1469 1465 1461 1457 1453 1448 1444 1439 1434 1431 1427 1423 1419 1415 1412 1409 1406 1403 1399 1395 1392 1388 1385 1381 1378 1374 1371 1368 1364 1361 1358 1355 1352 1350 1350 1349 1348 1348 1349 1350 1352 1353 1353 1353 1353 1353 1353 1353 1354 1355 1356 1357 1358 1359 1361 1362 1362 1363 1365 1367 1368 1369 1370 1371 1372 1372 1373 1374 1375 1375 1376 1376 1378 1379 1380 1380 1381
1492 1490 1487 1484 1480 1477 1473 1469 1466 1462 1458 1454 1450 1445 1441 1436 1431 1427 1423 1420 1417 1413 1409 1405 1402 1398 1394 1390 1387 1383 1380 1376 1373 1369 1366 1363 1359 1356 1353 1350 1348 1346 1345 1345 1344 1344 1345 1346 1348 1348 1349 1349 1349 1349 1349 1350 1350 1351 1352 1353 1354 1355 1356 1357 1358 1359 1361 1362 1364 1365 1366 1367 1369 1369 1371 1372 1372 1372 1373 1374 1375 1376 1377 1378 1378
1490 1488 1485 1481 1477 1474 1470 1467 1463 1459 1455 1450 1445 1441 1436 1432 1428 1424 1420 1417 1414 1409 1405 1401 1397 1393 1389 1385 1382 1378 1375 1372 1368 1364 1361 1358 1354 1351 1348 1346 1344 1342 1341 1341 1340 1340 1341 1342 1344 1344 1345 1345 1345 1345 1345 1346 1346 1347 1348 1349 1350 1351 1352 1354 1355 1355 1356 1358 1360 1361 1362 1364 1366 1367 1368 1369 1370 1370 1370 1371 1372 1373 1374 1375 1376
1488 1485 1482 1478 1475 1471 1468 1465 1461 1456 1451 1446 1441 1436 1432 1428 1424 1421 1417 1414 1410 1406 1400 1396 1392 1388 1384 1381 1377 1373 1370 1366 1363 1360 1357 1353 1350 1347 1344 1341 1339 1338 1337 1337 1336 1336 1337 1338 1340 1340 1341 1341 1341 1341 1342 1342 1343 1343 1344 1345 1346 1348 1349 1350 1351 1352 1352 1354 1355 1357 1358 1360 1363 1364 1366 1366 1367 1368 1368 1369 1370 1371 1371 1372 1373
1486 1483 1480 1476 1473 1469 1466 1462 1457 1453 1448 1443 1439 1434 1430 1426 1421 1418 1414 1409 1405 1401 1396 1391 1388 1384 1380 1377 1373 1369 1365 1361 1358 1355 1352 1349 1346 1343 1340 1337 1335 1334 1333 1333 1332 1332 1333 1334 1335 1336 1337 1337 1337 1337 1338 1339 1340 1341 1341 1341 1342 1344 1346 1346 1347 1348 1349 1350 1352 1353 1355 1357 1359 1361 1362 1363 1365 1365 1366 1367 1368 1368 1369 1369 1370
1484 1481 1477 1474 1470 1466 1462 1458 1454 1449 1445 1442 1437 1432 1428 1423 1419 1414 1409 1404 1400 1396 1391 1387 1384 1381 1377 1373 1368 1364 1360 1357 1353 1350 1347 1345 1342 1339 1336 1333 1331 1330 1329 1329 1328 1328 1329 1330 1331 1332 1333 1333 1333 1333 1334 1336 1337 1339 1339 1339 1339 1340 1342 1343 1344 1345 1346 1347 1348 1349 1351 1353 1355 1357 1359 1361 1362 1363 1364 1365 1366 1366 1366 1367 1367
1483 1479 1476 1473 1468 1464 1460 1456 1452 1448 1444 1440 1436 1431 1427 1422 1416 1411 1406 1401 1396 1393 1389 1385 1381 1378 1373 1369 1364 1360 1356 1353 1349 1346 1343 1341 1338 1335 1332 1329 1327 1326 1326 1325 1325 1325 1325 1326 1327 1328 1329 1329 1329 1330 1331 1333 1334 1335 1337 1338 1337 1337 1338 1339 1341 1342 1343 1343 1345 1346 1348 1350 1352 1354 1356 1358 1359 1360 1361 1362 1363 1364 1365 1365 1365
1482 1479 1476 1471 1467 1463 1458 1454 1451 1447 1442 1438 1434 1429 1424 1418 1413 1407 1402 1398 1393 1390 1386 1382 1378 1374 1370 1365 1361 1357 1353 1349 1346 1343 1339 1336 1333 1330 1328 1325 1323 1322 1322 1322 1321 1321 1322 1322 1323 1324 1324 1325 1325 1326 1328 1330 1331 1332 1334 1336 1336 1335 1335 1336 1337 1339 1340 1340 1342 1343 1345 1347 1349 1351 1353 1354 1356 1357 1359 1360 1361 1362 1362 1363 1364
1481 1478 1474 1470 1466 1461 1456 1452 1448 1444 1438 1433 1429 1424 1417 1412 1407 1403 1398 1394 1391 1387 1383 1379 1375 1371 1367 1363 1358 1354 1350 1345 1342 1339 1336 1333 1330 1326 1324 1321 1319 1318 1318 1318 1318 1318 1318 1318 1319 1320 1320 1321 1321 1323 1325 1326 1327 1329 1330 1332 1332 1333 1333 1333 1334 1336 1337 1338 1339 1340 1342 1344 1346 1348 1350 1351 1353 1354 1356 1357 1358 1359 1359 1360 1361
1480 1477 1473 1468 1464 1460 1455 1451 1445 1440 1435 1429 1424 1419 1413 1407 1403 1400 1396 1392 1388 1384 1380 1376 1372 1368 1364 1360 1355 1350 1346 1341 1338 1335 1332 1329 1325 1322 1320 1318 1316 1314 1314 1314 1315 1315 1315 1315 1316 1316 1317 1317 1318 1320 1322 1323 1324 1325 1327 1327 1328 1329 1330 1331 1332 1333 1334 1335 1337 1338 1339 1341 1343 1345 1347 1349 1350 1352 1354 1355 1355 1356 1357 1358 1358
1479 1475 1471 1468 1464 1459 1455 1449 1443 1438 1434 1429 1423 1417 1412 1406 1402 1398 1394 1390 1386 1381 1377 1372 1367 1363 1359 1355 1351 1346 1341 1337 1333 1330 1328 1325 1322 1318 1315 1314 1312 1311 1311 1311 1311 1311 1312 1312 1312 1313 1313 1314 1315 1317 1319 1320 1320 1321 1323 1323 1324 1325 1327 1328 1330 1331 1332 1333 1334 1336 1337 1339 1341 1342 1344 1347 1349 1350 1351 1352 1353 1354 1355 1355 1356
1477 1471 1467 1463 1460 1455 1451 1445 1439 1436 1432 1428 1421 1415 1410 1405 1401 1396 1392 1387 1382 1377 1372 1367 1362 1358 1353 1349 1345 1341 1336 1332 1328 1325 1322 1319 1316 1314 1311 1309 1308 1307 1307 1308 1308 1308 1309 1309 1309 1310 1310 1311 1312 1314 1315 1316 1317 1318 1319 1320 1320 1322 1323 1325 1327 1328 1329 1330 1331 1333 1335 1336 1338 1340 1342 1344 1347 1348 1348 1349 1351 1351 1352 1353 1354
1474 1470 1465 1459 1454 1449 1444 1440 1436 1432 1427 1423 1417 1413 1408 1403 1398 1393 1389 1384 1378 1371 1366 1361 1356 1351 1348 1343 1338 1334 1331 1327 1323 1320 1317 1314 1311 1309 1307 1305 1304 1304 1304 1304 1305 1305 1306 1306 1306 1307 1307 1308 1309 1310 1311 1312 1313 1314 1315 1316 1317 1319 1320 1322 1324 1326 1327 1327 1328 1330 1332 1334 1335 1337 1339 1342 1344 1345 1346 1346 1348 1349 1350 1351 1352
1471 1466 1461 1456 1452 1446 1440 1436 1433 1428 1423 1418 1413 1409 1405 1400 1395 1389 1384 1379 1374 1367 1361 1355 1350 1346 1343 1339 1334 1330 1326 1323 1319 1315 1313 1310 1307 1305 1303 1302 1301 1301 1301 1301 1302 1303 1303 1303 1304 1304 1304 1305 1306 1307 1308 1308 1309 1310 1311 1313 1314 1316 1317 1320 1322 1323 1325 1325 1326 1328 1329 1331 1333 1335 1337 1339 1341 1343 1343 1344 1345 1346 1347 1348 1350
1470 1465 1459 1453 1448 1444 1441 1437 1433 1426 1420 1415 1411 1407 1402 1397 1391 1384 1379 1373 1368 1362 1356 1351 1346 1342 1338 1334 1330 1326 1322 1319 1315 1312 1309 1307 1305 1302 1300 1299 1298 1298 1298 1299 1300 1300 1300 1301 1301 1301 1302 1303 1303 1304 1304 1305 1306 1306 1308 1310 1312 1313 1315 1318 1320 1322 1323 1324 1325 1326 1327 1329 1331 1333 1335 1337 1339 1340 1341 1342 1343 1344 1345 1347 1348
1466 1462 1458 1452 1447 1444 1440 1436 1431 1426 1420 1415 1411 1406 1400 1394 1387 1381 1375 1369 1363 1358 1352 1347 1342 1338 1333 1329 1326 1322 1318 1314 1311 1308 1307 1304 1302 1299 1298 1297 1296 1296 1296 1296 1297 1298 1298 1298 1299 1299 1300 1300 1301 1301 1301 1301 1302 1303 1305 1307 1310 1311 1313 1316 1318 1320 1321 1322 1323 1324 1325 1327 1329 1331 1333 1335 1336 1338 1340 1340 1341 1342 1343 1345 1346
1462 1458 1455 1452 1447 1443 1439 1434 1429 1424 1419 1415 1410 1404 1397 1391 1385 1379 1373 1366 1360 1355 1349 1344 1339 1334 1330 1326 1321 1318 1315 1311 1308 1306 1305 1301 1299 1297 1296 1295 1294 1294 1294 1294 1295 1296 1296 1297 1297 1297 1297 1298 1298 1298 1298 1299 1300 1300 1302 1305 1308 1310 1313 1314 1316 1318 1319 1321 1322 1323 1324 1325 1327 1329 1330 1332 1334 1336 1337 1338 1339 1340 1341 1342 1344
1463 1459 1455 1451 1447 1441 1436 1432 1427 1422 1418 1414 1409 1401 1394 1389 1382 1376 1370 1363 1357 1352 1346 1341 1336 1331 1327 1322 1318 1314 1311 1308 1306 1305 1303 1299 1296 1295 1294 1293 1292 1292 1292 1292 1293 1294 1294 1295 1295 1295 1295 1295 1295 1295 1296 1296 1297 1298 1300 1302 1305 1309 1311 1313 1315 1316 1318 1319 1320 1321 1322 1324 1325 1327 1328 1330 1332 1333 1334 1335 1336 1337 1338 1339 1340
1462 1458 1454 1450 1445 1439 1434 1429 1424 1420 1416 1413 1407 1399 1391 1384 1378 1373 1366 1360 1354 1349 1343 1339 1334 1329 1324 1319 1315 1312 1309 1307 1305 1304 1301 1297 1295 1293 1292 1292 1291 1291 1291 1290 1291 1292 1292 1293 1294 1294 1294 1293 1293 1293 1294 1295 1296 1297 1298 1301 1303 1307 1310 1312 1313 1315 1316 1317 1318 1320 1321 1322 1323 1325 1326 1328 1329 1330 1331 1332 1333 1334 1335 1336 1337
1461 1456 1452 1448 1443 1437 1432 1426 1421 1417 1414 1410 1404 1397 1389 1382 1376 1370 1364 1358 1352 1347 1341 1337 1332 1326 1322 1317 1313 1310 1307 1305 1304 1302 1299 1296 1294 1292 1291 1290 1289 1289 1289 1289 1290 1290 1291 1292 1292 1292 1292 1292 1292 1292 1293 1294 1295 1296 1298 1300 1302 1305 1308 1310 1311 1313 1314 1316 1317 1318 1319 1320 1321 1322 1324 1325 1326 1327 1328 1329 1330 1331 1332 1333 1334
1459 1454 1450 1445 1440 1434 1429 1423 1418 1414 1411 1407 1401 1395 1389 1382 1375 1368 1362 1357 1352 1346 1340 1334 1329 1324 1319 1315 1312 1309 1306 1304 1302 1300 1297 1295 1293 1291 1290 1289 1288 1288 1288 1288 1289 1289 1290 1290 1290 1291 1291 1291 1292 1292 1293 1294 1295 1296 1298 1300 1302 1304 1306 1308 1309 1311 1312 1314 1315 1315 1316 1318 1319 1320 1321 1322 1323 1324 1325 1326 1327 1328 1329 1330 1331
1458 1453 1448 1443 1438 1433 1427 1422 1416 1412 1408 1404 1398 1392 1387 1380 1374 1367 1361 1355 1350 1345 1339 1333 1328 1323 1319 1315 1312 1309 1306 1303 1301 1299 1296 1294 1292 1290 1288 1288 1287 1287 1287 1288 1288 1288 1289 1289 1289 1290 1290 1291 1292 1293 1293 1295 1296 1297 1298 1299 1301 1302 1304 1306 1307 1309 1310 1311 1312 1313 1315 1316 1317 1318 1319 1320 1321 1321 1322 1323 1324 1325 1326 1326 1327
1456 1452 1447 1443 1438 1432 1426 1420 1415 1411 1407 1401 1396 1390 1385 1379 1372 1366 1361 1355 1349 1344 1338 1332 1328 1323 1319 1315 1312 1309 1306 1303 1300 1298 1295 1292 1291 1289 1287 1287 1286 1286 1287 1287 1287 1287 1288 1288 1288 1289 1290 1291 1293 1294 1294 1295 1296 1297 1298 1299 1300 1302 1303 1305 1306 1307 1308 1309 1311 1312 1313 1314 1315 1316 1317 1317 1318 1318 1319 1320 1321 1322 1322 1323 1324
1455 1450 1446 1442 1437 1431 1425 1419 1414 1410 1406 1400 1394 1389 1383 1377 1371 1365 1360 1354 1348 1342 1336 1332 1327 1323 1319 1315 1312 1308 1305 1302 1300 1297 1294 1291 1289 1288 1286 1286 1285 1285 1286 1286 1286 1287 1287 1288 1288 1289 1290 1292 1294 1295 1295 1296 1296 1297 1298 1299 1300 1302 1303 1304 1305 1307 1307 1308 1309 1310 1311 1312 1313 1313 1314 1315 1315 1315 1315 1316 1317 1318 1319 1320 1321
1453 1448 1444 1440 1435 1430 1424 1418 1413 1409 1404 1398 1393 1387 1381 1375 1370 1365 1360 1354 1348 1342 1336 1331 1327 1323 1319 1316 1312 1308 1305 1303 1300 1297 1293 1290 1288 1286 1285 1285 1285 1285 1285 1286 1286 1287 1288 1288 1289 1290 1291 1293 1294 1294 1295 1296 1297 1298 1298 1299 1300 1301 1302 1303 1304 1305 1306 1307 1308 1309 1309 1310 1310 1310 1311 1312 1312 1312 1313 1314 1314 1315 1316 1316 1317